Вернуться в каталог

CZ-3C DEB

АктивенGTO
NORAD 39353·DEBRIS·🇨🇳 China

Запущен Oct 31, 2010 с Xichang Satellite Launch Center

Loading…

TLE

СвежийSource: Space-Track

Эпоха: Sep 14, 2026, 13:30 UTC

1 39353U 10057T   26257.56254655  .00000007  00000-0  35211-2 0  9997
2 39353  20.4013  46.8582 7145727 261.8481  25.8657  2.24423604105805

Отслеживайте CZ-3C DEB в реальном времени с AllMySat

Download on the App Store